Regional Weather Roundup
Issued by NWS Little Rock, AR

Home | Current Version | Previous Version | Graphics & Text | Print | Product List | Glossary On
Versions: 1 2 3 4 5 6 7 8 9 10 11 12 13 14 15 16 17 18 19 20 21 22 23 24 25 26 27 28 29 30 31 32 33 34 35 36 37 38 39 40 41 42 43 44 45 46 47 48 49 50
000
ASUS44 KLZK 211305
RWRLZK

WEATHER ROUNDUP FOR ARKANSAS
NATIONAL WEATHER SERVICE LITTLE ROCK AR
700 AM CST SUN DEC 21 2014

NOTE: "FAIR" INDICATES FEW OR NO CLOUDS BELOW 12,000 FEET WITH NO
SIGNIFICANT WEATHER AND/OR OBSTRUCTIONS TO VISIBILITY.

ARZ001-003-010-029-211400-
NORTHWEST ARKANSAS

CITY           SKY/WX    TMP DP  RH WIND       PRES   REMARKS
FAYETTEVILLE   CLOUDY    41  39  93 SE6       30.12S
FORT SMITH     CLOUDY    44  40  85 E6        30.15R
HARRISON       CLOUDY    38  38 100 SE6       30.15R FOG
BENTONVILLE    CLOUDY    43  37  81 S8        30.11S
ROGERS         LGT RAIN  41  39  93 SE9       30.11S
SILOAM SPGS    CLOUDY    43  36  75 SE10      30.11S
HIGHFILL       CLOUDY    42  40  92 SE8       30.10S
SPRINGDALE     CLOUDY    41  39  93 SE6       30.13S FOG
$$

ARZ004-005-016-211400-
NORTH CENTRAL ARKANSAS

CITY           SKY/WX    TMP DP  RH WIND       PRES   REMARKS
BATESVILLE     CLOUDY    39  34  81 SE3       30.22R
FLIPPIN        CLOUDY    39  34  81 SE3       30.17S
MTN HOME       CLOUDY    38  35  89 SE8       30.17R
$$

ARZ040-041-211400-
WEST CENTRAL ARKANSAS

CITY           SKY/WX    TMP DP  RH WIND       PRES   REMARKS
MENA           CLOUDY    43  39  87 E5        30.15R
MOUNT IDA      CLOUDY    38  37  97 CALM      30.15S FOG
$$

ARZ009-017-025-026-028-211400-
NORTHEAST ARKANSAS

CITY           SKY/WX    TMP DP  RH WIND       PRES   REMARKS
CORNING        CLOUDY    37  32  81 SE3       30.24R
JONESBORO      CLOUDY    35  32  88 NE6       30.23S WCI  30
NEWPORT        CLOUDY    39  35  85 E3        30.24R
WALNUT RIDGE   CLOUDY    37  30  75 E10       30.21F
BLYTHEVILLE    CLOUDY    32  30  92 NE3       30.24S
$$

ARZ022-023-033-042-044-211400-
CENTRAL ARKANSAS

CITY           SKY/WX    TMP DP  RH WIND       PRES   REMARKS
LITTLE ROCK    PTCLDY    35  31  85 N3        30.21R FOG
N LITTLE ROCK    N/A     35  34  99 NE6       30.21R WCI  30
JACKSONVILLE   PTCLDY    30  28  94 CALM      30.20
SEARCY         CLOUDY    36  34  92 N5        30.23R
HOT SPRINGS    FOG       33  33 100 CALM      30.20R VSB 1/4
RUSSELLVILLE   CLOUDY    40  35  83 CALM      30.19S
CLINTON        CLOUDY    39  37  93 CALM      30.22S FOG
$$

ARZ036-211400-
EAST ARKANSAS

CITY           SKY/WX    TMP DP  RH WIND       PRES   REMARKS
WEST MEMPHIS   CLOUDY    32  30  92 NE3       30.21R
$$

ARZ050-053-066-070-073-211400-
SOUTHWEST ARKANSAS

CITY           SKY/WX    TMP DP  RH WIND       PRES   REMARKS
ARKADELPHIA    CLOUDY    33  33 100 CALM      30.21R FOG
CAMDEN         PTCLDY    28  27  93 CALM      30.20R FOG
TEXARKANA      CLOUDY    36  36 100 NE5       30.16S FOG
EL DORADO      CLEAR     32  31  96 CALM      30.18R FOG
DE QUEEN       CLOUDY    42  38  85 E6        30.16R
$$

ARZ056-057-069-211400-
SOUTHEAST ARKANSAS

CITY           SKY/WX    TMP DP  RH WIND       PRES   REMARKS
PINE BLUFF     CLEAR     32  31  96 NW3       30.20R FOG
STUTTGART        N/A     34  30  86 NE7       30.21R WCI  28
MONTICELLO     CLEAR     32  29  88 CALM      30.18R FOG

$$




USA.gov is the U.S. government's official web portal to all federal, state and local government web resources and services.